Location: Sark
(49.4440°N, 2.3620°W)
Time: 15:14:03
(UTC+00:00)

Envisat - Visible Passes

Search period start: 14 December 2017 00:00
Search period end: 24 December 2017 00:00
Orbit: 764 x 766 km, 98.2° (Epoch: 14 December)

Date Brightness Start Highest point End Pass type
(mag) Time Alt. Az. Time Alt. Az. Time Alt. Az.
14 Dec 5.3 18:24:12 10° N 18:24:12 10° N 18:24:13 10° N visible
15 Dec 5.5 19:27:14 10° N 19:27:14 10° N 19:27:19 10° N visible
16 Dec 5.8 07:23:03 10° NE 07:26:09 16° E 07:29:14 10° SE visible
16 Dec 5.3 18:50:05 11° N 18:50:05 11° N 18:50:16 10° N visible
18 Dec 5.4 19:15:56 11° N 19:15:56 11° N 19:16:08 10° N visible
19 Dec 5.9 07:12:36 10° ENE 07:14:53 13° E 07:17:08 10° ESE visible
19 Dec 5.2 18:38:45 11° N 18:38:45 11° N 18:39:00 10° N visible
20 Dec 5.6 19:41:46 10° NNW 19:41:46 10° NNW 19:41:51 10° NNW visible
21 Dec 5.3 19:04:35 12° N 19:04:35 12° N 19:04:55 10° N visible
22 Dec 6.4 07:03:09 10° ENE 07:03:34 10° E 07:03:59 10° E visible
22 Dec 5.2 18:27:23 11° N 18:27:23 11° N 18:27:40 10° N visible
23 Dec 5.4 19:30:23 12° N 19:30:23 12° N 19:30:42 10° N visible
